Location: Eschentzwiller
(47.7125°N, 7.3981°E)
Time: 22:11:33
(UTC+00:00)

Cosmos 1697 Rocket - Visible Passes

Search period start: 08 March 2021 00:00
Search period end: 18 March 2021 00:00
Orbit: 833 x 843 km, 71.0° (Epoch: 07 March)

Date Brightness Start Highest point End Pass type
(mag) Time Alt. Az. Time Alt. Az. Time Alt. Az.
08 Mar 5.2 17:59:58 10° WNW 18:02:23 13° NNW 18:04:48 10° N visible
08 Mar 5.6 23:17:39 10° NNW 23:17:54 11° NNW 23:17:54 11° NNW visible
09 Mar 5.5 23:01:31 10° NNW 23:02:04 12° N 23:02:04 12° N visible
10 Mar 5.4 22:45:22 10° N 22:46:13 14° N 22:46:13 14° N visible
11 Mar 5.2 22:29:13 10° N 22:30:24 15° N 22:30:24 15° N visible
12 Mar 5.1 22:13:04 10° N 22:14:34 16° N 22:14:34 16° N visible
13 Mar 5.0 21:56:56 10° N 21:58:45 17° N 21:58:45 17° N visible
13 Mar 5.5 23:40:24 10° NNW 23:40:28 10° NNW 23:40:28 10° NNW visible
14 Mar 4.9 21:40:48 10° N 21:42:56 18° NNE 21:42:56 18° NNE visible
14 Mar 5.4 23:24:12 10° NNW 23:24:40 12° NNW 23:24:40 12° NNW visible
15 Mar 4.8 21:24:40 10° N 21:27:08 19° NNE 21:27:08 19° NNE visible
15 Mar 5.3 23:08:00 10° NNW 23:08:52 15° NNW 23:08:52 15° NNW visible
16 Mar 4.7 21:08:32 10° N 21:11:21 19° NNE 21:11:21 19° NNE visible
16 Mar 5.1 22:51:49 10° NNW 22:53:04 17° NNW 22:53:04 17° NNW visible
17 Mar 4.6 20:52:24 10° N 20:55:34 19° NNE 20:55:34 19° NNE visible
17 Mar 4.9 22:35:38 10° NNW 22:37:18 20° NNW 22:37:18 20° NNW visible
